Weather History for VLVT - November, 2013

Change the Weather History Date:

Thursday, November 21, 2013

  Actual Average Record
Temperature  
Mean Temperature 78 °F -  
Max Temperature 86 °F 73 °F 95 °F (2012)
Min Temperature 69 °F 64 °F 57 °F (2001)
Cooling Degree Days 12    
Growing Degree Days 28 (Base 50)    
Moisture  
Dew Point 68 °F    
Average Humidity 68    
Maximum Humidity 88    
Minimum Humidity 46    
Precipitation  
Precipitation 0.00 in 0.01 in - ()
Sea Level Pressure  
Sea Level Pressure 29.87 in    
Wind  
Wind Speed 2 mph ()    
Max Wind Speed 2 mph    
Max Gust Speed -    
Visibility 3.2 miles    
Events      
Averages and records for this station are not official NWS values.
T = Trace of Precipitation, MM = Missing Value Source: Averaged Metar Reports

Daily Weather History Graph

Daily Weather History Graph

Search for Another Location

Airport or City:

Trip Planner

Search our weather history database for the weather conditions in past years. The results will help you decide how hot, cold, wet, or windy it might be!

Date:

Astronomy

Nov. 21, 2013 Rise Set
Actual Time 6:18 AM ICT 5:32 PM ICT
Civil Twilight 5:55 AM ICT 5:55 PM ICT
Nautical Twilight 5:29 AM ICT 6:21 PM ICT
Astronomical Twilight 5:02 AM ICT 6:48 PM ICT
Moon 8:37 PM ICT (11/21) 9:04 AM ICT (11/21)
Length of Visible Light 11h 59m
Length of Day
11h 13m
Waning Gibbous, 88% of the Moon is Illuminated
Nov 21
Waning Gibbous
Nov 26
Last Quarter
Dec 3
New
Dec 9
First Quarter
Dec 17
Full

Hourly Weather History & Observations

Time (ICT) Temp. Heat Index Dew Point Humidity Pressure Visibility Wind Dir Wind Speed Gust Speed Precip Events Conditions
1:00 AM 73 °F - 65 °F 68% 29.89 in 2 mi East 2.2 mph - -   Mist
7:00 AM 71 °F - 67 °F 82% 29.90 in 2 mi SW 2.2 mph - -   Mist
7:00 AM 69.8 °F - 66.2 °F 88% 29.92 in 2.5 mi SW 2.3 mph - N/A   Mostly Cloudy
7:30 AM 69.8 °F - 66.2 °F 88% 29.92 in 2.5 mi WNW 2.3 mph - N/A   Mostly Cloudy
8:30 AM 71.6 °F - 66.2 °F 83% 29.95 in 3.7 mi West 2.3 mph - N/A   Scattered Clouds
9:00 AM 77.0 °F - 66.2 °F 69% 29.95 in 4.3 mi South 2.3 mph - N/A   Scattered Clouds
9:30 AM 77.0 °F - 66.2 °F 69% 29.95 in 4.3 mi SSW 2.3 mph - N/A   Scattered Clouds
10:00 AM 78.8 °F - 66.2 °F 65% 29.95 in 5.0 mi South 2.3 mph - N/A   Mostly Cloudy
1:00 PM 85 °F - 67 °F 46% 29.83 in 5 mi SSE 2.2 mph - -   Haze
4:00 PM 86.0 °F 90.4 °F 69.8 °F 58% 29.80 in 5.0 mi North 2.3 mph - N/A   Mostly Cloudy
4:30 PM 86.0 °F 90.4 °F 69.8 °F 58% 29.80 in 5.0 mi NNW 2.3 mph - N/A   Mostly Cloudy
5:00 PM 86.0 °F 90.4 °F 69.8 °F 58% 29.80 in 5.0 mi East 2.3 mph - N/A   Scattered Clouds
5:30 PM 86.0 °F 90.4 °F 69.8 °F 58% 29.80 in 5.0 mi NE 2.3 mph - N/A   Scattered Clouds
6:00 PM 84.2 °F 88.4 °F 69.8 °F 62% 29.83 in 2.5 mi South 2.3 mph - N/A   Scattered Clouds
6:30 PM 82.4 °F 86.3 °F 69.8 °F 66% 29.83 in 1.9 mi East 2.3 mph - N/A   Scattered Clouds
7:00 PM 81 °F - 69 °F 58% 29.82 in 2 mi East 2.2 mph - -   Mist
7:00 PM 80.6 °F 83.2 °F 68.0 °F 65% 29.83 in 1.9 mi East 2.3 mph - N/A   Partly Cloudy
7:30 PM 80.6 °F 83.2 °F 68.0 °F 65% 29.83 in 1.9 mi NE 2.3 mph - N/A   Partly Cloudy
8:00 PM 78.8 °F - 69.8 °F 74% 29.86 in 1.9 mi East 2.3 mph - N/A   Partly Cloudy
8:30 PM 78.8 °F - 69.8 °F 74% 29.86 in 1.9 mi ENE 2.3 mph - N/A   Partly Cloudy
9:00 PM 78.8 °F - 69.8 °F 74% 29.89 in 1.2 mi ENE 2.3 mph - N/A   Partly Cloudy